MMC YSSY-YBBN

Flight info

Callsign MMC
Flight time 1h 7m
Altitude 41000
Route OLSEM Y193 BANDA H252 BN
Aircraft LJ35/M-VGDW/C

Departure

Time 2026-04-23 07:04
Airport Sydney Kingsford Smith International Airport (YSSY)

Arrival

Time 2026-04-23 08:11
Airport Brisbane International Airport (YBBN)
Time Latitude Longitude Altitude Speed Heading
2026-04-23 06:31 -33.93450 151.18830 24 ft 0 kts 191°
2026-04-23 06:58 -33.93461 151.18828 25 ft 5 kts 189°
2026-04-23 06:58 -33.93492 151.18856 24 ft 8 kts 185°
2026-04-23 06:58 -33.93563 151.18841 25 ft 13 kts 188°
2026-04-23 06:58 -33.93611 151.18742 27 ft 17 kts 253°
2026-04-23 06:59 -33.93649 151.18584 24 ft 22 kts 254°
2026-04-23 06:59 -33.93696 151.18384 26 ft 27 kts 254°
2026-04-23 06:59 -33.93750 151.18156 24 ft 29 kts 254°
2026-04-23 06:59 -33.93809 151.17905 24 ft 33 kts 253°
2026-04-23 07:00 -33.93882 151.17773 24 ft 20 kts 164°
2026-04-23 07:00 -33.94028 151.17813 23 ft 23 kts 167°
2026-04-23 07:00 -33.94194 151.17854 26 ft 26 kts 170°
2026-04-23 07:00 -33.94371 151.17901 24 ft 21 kts 168°
2026-04-23 07:01 -33.94500 151.17881 25 ft 20 kts 192°
2026-04-23 07:01 -33.94647 151.17914 24 ft 23 kts 168°
2026-04-23 07:01 -33.94817 151.17958 24 ft 27 kts 168°
2026-04-23 07:01 -33.95004 151.18005 26 ft 26 kts 166°
2026-04-23 07:02 -33.95098 151.18054 26 ft 14 kts 115°
2026-04-23 07:02 -33.95085 151.18189 25 ft 19 kts 77°
2026-04-23 07:02 -33.95054 151.18361 25 ft 23 kts 78°
2026-04-23 07:02 -33.95017 151.18565 26 ft 21 kts 78°
2026-04-23 07:03 -33.94990 151.18713 24 ft 2 kts 77°
2026-04-23 07:03 -33.94981 151.18807 19 ft 21 kts 108°
2026-04-23 07:03 -33.95033 151.18846 18 ft 0 kts 167°
2026-04-23 07:04 -33.95232 151.18898 17 ft 82 kts 168°
2026-04-23 07:04 -33.96127 151.19122 266 ft 166 kts 167°
2026-04-23 07:04 -33.97368 151.19554 1200 ft 205 kts 149°
2026-04-23 07:04 -33.98326 151.20840 2288 ft 208 kts 121°
2026-04-23 07:05 -33.99136 151.22313 3352 ft 214 kts 128°
2026-04-23 07:05 -34.00120 151.23683 4413 ft 217 kts 133°
2026-04-23 07:05 -34.01195 151.24993 5420 ft 224 kts 139°
2026-04-23 07:05 -34.02252 151.26392 6422 ft 229 kts 117°
2026-04-23 07:06 -34.02559 151.28343 7471 ft 257 kts 87°
2026-04-23 07:06 -34.01933 151.30436 8887 ft 273 kts 57°
2026-04-23 07:06 -34.00502 151.31979 10543 ft 286 kts 32°
2026-04-23 07:06 -33.98590 151.32678 11929 ft 299 kts
2026-04-23 07:07 -33.96500 151.33020 13397 ft 305 kts 18°
2026-04-23 07:07 -33.94508 151.33968 14824 ft 310 kts 28°
2026-04-23 07:07 -33.92510 151.35035 16175 ft 319 kts 25°
2026-04-23 07:07 -33.90384 151.35942 17512 ft 329 kts 20°
2026-04-23 07:08 -33.88158 151.36748 18855 ft 338 kts 20°
2026-04-23 07:08 -33.85900 151.37633 20064 ft 345 kts 22°
2026-04-23 07:08 -33.83614 151.38597 21316 ft 351 kts 22°
2026-04-23 07:08 -33.81273 151.39564 22577 ft 359 kts 21°
2026-04-23 07:09 -33.78878 151.40522 23826 ft 366 kts 21°
2026-04-23 07:09 -33.76463 151.41490 24864 ft 373 kts 21°
2026-04-23 07:09 -33.73948 151.42511 25896 ft 380 kts 21°
2026-04-23 07:09 -33.71451 151.43523 26899 ft 387 kts 20°
2026-04-23 07:10 -33.68877 151.44563 27854 ft 395 kts 20°
2026-04-23 07:10 -33.66246 151.45622 28839 ft 401 kts 20°
2026-04-23 07:10 -33.63574 151.46700 29789 ft 408 kts 20°
2026-04-23 07:10 -33.60863 151.47795 30655 ft 415 kts 20°
2026-04-23 07:11 -33.58098 151.48908 31418 ft 420 kts 20°
2026-04-23 07:11 -33.55316 151.50027 32180 ft 424 kts 19°
2026-04-23 07:11 -33.52495 151.51162 32902 ft 429 kts 19°
2026-04-23 07:12 -33.46810 151.53447 34227 ft 437 kts 19°
2026-04-23 07:12 -33.43907 151.54611 34786 ft 441 kts 19°
2026-04-23 07:12 -33.40980 151.55785 35296 ft 445 kts 19°
2026-04-23 07:12 -33.38019 151.56973 35782 ft 449 kts 19°
2026-04-23 07:13 -33.35048 151.58163 36247 ft 453 kts 18°
2026-04-23 07:13 -33.32043 151.59366 36703 ft 456 kts 18°
2026-04-23 07:13 -33.29054 151.60562 37131 ft 460 kts 18°
2026-04-23 07:13 -33.26005 151.61781 37551 ft 464 kts 18°
2026-04-23 07:14 -33.22929 151.63009 37946 ft 467 kts 18°
2026-04-23 07:14 -33.19832 151.64243 38270 ft 471 kts 18°
2026-04-23 07:14 -33.16728 151.65482 38747 ft 470 kts 18°
2026-04-23 07:14 -33.13627 151.66719 39187 ft 470 kts 18°
2026-04-23 07:15 -33.10531 151.67953 39572 ft 469 kts 18°
2026-04-23 07:15 -33.07435 151.69184 39952 ft 468 kts 18°
2026-04-23 07:15 -33.04346 151.70412 40351 ft 466 kts 18°
2026-04-23 07:15 -33.01307 151.71620 40747 ft 465 kts 18°
2026-04-23 07:16 -32.98230 151.72842 41159 ft 464 kts 17°
2026-04-23 07:16 -32.95164 151.74057 41382 ft 468 kts 17°
2026-04-23 07:16 -32.92039 151.75294 41385 ft 476 kts 17°
2026-04-23 07:17 -32.85671 151.77818 41385 ft 485 kts 17°
2026-04-23 07:17 -32.79287 151.80343 41398 ft 485 kts 17°
2026-04-23 07:18 -32.72869 151.82877 41404 ft 485 kts 17°
2026-04-23 07:18 -32.66460 151.85404 41402 ft 485 kts 17°
2026-04-23 07:19 -32.60073 151.87918 41382 ft 485 kts 17°
2026-04-23 07:19 -32.53663 151.90437 41383 ft 485 kts 17°
2026-04-23 07:20 -32.47249 151.92955 41386 ft 485 kts 17°
2026-04-23 07:20 -32.40880 151.95450 41370 ft 484 kts 17°
2026-04-23 07:21 -32.34481 151.97953 41369 ft 483 kts 17°
2026-04-23 07:21 -32.28089 152.00451 41368 ft 483 kts 17°
2026-04-23 07:22 -32.21686 152.02949 41368 ft 483 kts 17°
2026-04-23 07:22 -32.15298 152.05438 41367 ft 483 kts 17°
2026-04-23 07:23 -32.08939 152.07910 41366 ft 483 kts 17°
2026-04-23 07:23 -32.02545 152.10395 41363 ft 483 kts 17°
2026-04-23 07:24 -31.96152 152.12875 41361 ft 483 kts 17°
2026-04-23 07:24 -31.89764 152.15347 41362 ft 483 kts 17°
2026-04-23 07:25 -31.83403 152.17808 41358 ft 483 kts 17°
2026-04-23 07:25 -31.77014 152.20275 41359 ft 483 kts 17°
2026-04-23 07:26 -31.70620 152.22740 41360 ft 482 kts 16°
2026-04-23 07:26 -31.64237 152.25198 41360 ft 483 kts 16°
2026-04-23 07:27 -31.57850 152.27653 41360 ft 482 kts 16°
2026-04-23 07:27 -31.51469 152.30105 41353 ft 482 kts 16°
2026-04-23 07:28 -31.45128 152.32533 41357 ft 482 kts 16°
2026-04-23 07:28 -31.38757 152.34973 41357 ft 482 kts 16°
2026-04-23 07:29 -31.32372 152.37414 41356 ft 481 kts 16°
2026-04-23 07:29 -31.26008 152.39844 41356 ft 481 kts 15°
2026-04-23 07:30 -31.19667 152.42260 41355 ft 481 kts 15°
2026-04-23 07:30 -31.13309 152.44680 41347 ft 482 kts 15°
2026-04-23 07:31 -31.06920 152.47110 41346 ft 481 kts 15°
2026-04-23 07:31 -31.00556 152.49524 41345 ft 481 kts 15°
2026-04-23 07:32 -30.94223 152.51925 41344 ft 480 kts 15°
2026-04-23 07:32 -30.88892 152.53943 41353 ft 481 kts 15°
2026-04-23 07:33 -30.82552 152.56341 41343 ft 481 kts 15°
2026-04-23 07:33 -30.76173 152.58721 41343 ft 480 kts 14°
2026-04-23 07:34 -30.69777 152.61002 41344 ft 480 kts 14°
2026-04-23 07:34 -30.63444 152.63324 41343 ft 480 kts 14°
2026-04-23 07:35 -30.57062 152.65622 41337 ft 478 kts 14°
2026-04-23 07:35 -30.50703 152.67927 41337 ft 478 kts 14°
2026-04-23 07:36 -30.44375 152.70210 41341 ft 478 kts 14°
2026-04-23 07:36 -30.38017 152.72503 41338 ft 478 kts 14°
2026-04-23 07:37 -30.31645 152.74800 41335 ft 478 kts 14°
2026-04-23 07:37 -30.25315 152.77075 41329 ft 478 kts 14°
2026-04-23 07:38 -30.18964 152.79357 41328 ft 478 kts 14°
2026-04-23 07:38 -30.12605 152.81638 41318 ft 478 kts 14°
2026-04-23 07:39 -30.06248 152.83914 41321 ft 478 kts 14°
2026-04-23 07:39 -29.99936 152.86172 41321 ft 478 kts 14°
2026-04-23 07:40 -29.93574 152.88446 41317 ft 478 kts 14°
2026-04-23 07:40 -29.87205 152.90718 41305 ft 477 kts 13°
2026-04-23 07:41 -29.80892 152.92966 41303 ft 477 kts 13°
2026-04-23 07:41 -29.74549 152.95223 41300 ft 477 kts 13°
2026-04-23 07:42 -29.68179 152.97486 41288 ft 477 kts 13°
2026-04-23 07:42 -29.61887 152.99719 41307 ft 475 kts 13°
2026-04-23 07:43 -29.55561 153.01961 41307 ft 475 kts 13°
2026-04-23 07:43 -29.49232 153.04200 41305 ft 475 kts 13°
2026-04-23 07:44 -29.42907 153.06436 41294 ft 475 kts 13°
2026-04-23 07:44 -29.36626 153.08652 41291 ft 474 kts 13°
2026-04-23 07:45 -29.30313 153.10878 41288 ft 474 kts 13°
2026-04-23 07:45 -29.24002 153.13100 41299 ft 474 kts 13°
2026-04-23 07:46 -29.17703 153.15319 41297 ft 473 kts 13°
2026-04-23 07:46 -29.14561 153.16425 41194 ft 470 kts 13°
2026-04-23 07:46 -29.11466 153.17512 40739 ft 473 kts 13°
2026-04-23 07:46 -29.08312 153.18615 40168 ft 470 kts 12°
2026-04-23 07:47 -29.05200 153.19701 39609 ft 463 kts 12°
2026-04-23 07:47 -29.02079 153.20452 39040 ft 454 kts
2026-04-23 07:47 -28.98949 153.20763 38340 ft 449 kts 358°
2026-04-23 07:47 -28.95834 153.20920 37629 ft 449 kts 358°
2026-04-23 07:48 -28.92687 153.21190 36948 ft 457 kts
2026-04-23 07:48 -28.89515 153.21722 36295 ft 462 kts
2026-04-23 07:48 -28.86326 153.22320 35666 ft 464 kts
2026-04-23 07:48 -28.83112 153.22768 35069 ft 464 kts
2026-04-23 07:49 -28.79931 153.23128 34500 ft 465 kts
2026-04-23 07:49 -28.76712 153.23569 33866 ft 468 kts
2026-04-23 07:49 -28.73478 153.24080 33203 ft 470 kts
2026-04-23 07:49 -28.70223 153.24562 32536 ft 473 kts
2026-04-23 07:50 -28.66938 153.25000 31912 ft 476 kts
2026-04-23 07:50 -28.63631 153.25448 31301 ft 478 kts
2026-04-23 07:50 -28.60333 153.25927 30697 ft 479 kts
2026-04-23 07:50 -28.57013 153.26411 30060 ft 482 kts
2026-04-23 07:51 -28.53694 153.26870 29382 ft 486 kts
2026-04-23 07:51 -28.50330 153.27334 28712 ft 489 kts
2026-04-23 07:51 -28.46918 153.27818 28054 ft 491 kts
2026-04-23 07:51 -28.43525 153.28304 27402 ft 493 kts
2026-04-23 07:52 -28.40109 153.28784 26777 ft 495 kts
2026-04-23 07:52 -28.36682 153.29259 26156 ft 499 kts
2026-04-23 07:52 -28.33215 153.29744 25532 ft 502 kts
2026-04-23 07:52 -28.29773 153.30231 24925 ft 504 kts
2026-04-23 07:53 -28.26283 153.30723 24325 ft 506 kts
2026-04-23 07:53 -28.22786 153.31211 23715 ft 508 kts
2026-04-23 07:53 -28.19277 153.31701 23017 ft 506 kts
2026-04-23 07:53 -28.15801 153.32189 22328 ft 497 kts
2026-04-23 07:54 -28.12436 153.32664 21677 ft 479 kts
2026-04-23 07:54 -28.09166 153.33124 21024 ft 478 kts
2026-04-23 07:54 -28.05811 153.33587 20343 ft 478 kts
2026-04-23 07:54 -28.02563 153.34041 19679 ft 475 kts
2026-04-23 07:55 -27.99296 153.34502 19017 ft 471 kts
2026-04-23 07:55 -27.96054 153.34955 18337 ft 466 kts
2026-04-23 07:55 -27.92847 153.35401 17597 ft 464 kts
2026-04-23 07:55 -27.89631 153.35847 16874 ft 464 kts
2026-04-23 07:56 -27.86436 153.36292 16160 ft 460 kts
2026-04-23 07:56 -27.83296 153.36732 15477 ft 450 kts
2026-04-23 07:56 -27.80202 153.37166 14801 ft 444 kts
2026-04-23 07:56 -27.77182 153.37589 14163 ft 441 kts
2026-04-23 07:57 -27.74143 153.38009 13570 ft 437 kts
2026-04-23 07:57 -27.71144 153.38424 13020 ft 432 kts
2026-04-23 07:57 -27.68176 153.38837 12489 ft 428 kts
2026-04-23 07:57 -27.65226 153.39248 11960 ft 423 kts
2026-04-23 07:58 -27.62381 153.39526 11440 ft 393 kts
2026-04-23 07:58 -27.59771 153.39628 10923 ft 358 kts
2026-04-23 07:58 -27.57376 153.39730 10473 ft 331 kts
2026-04-23 07:58 -27.55170 153.39840 10210 ft 308 kts
2026-04-23 07:59 -27.53093 153.39939 9964 ft 298 kts
2026-04-23 07:59 -27.51015 153.40035 9732 ft 300 kts
2026-04-23 07:59 -27.48912 153.40130 9509 ft 305 kts
2026-04-23 07:59 -27.46790 153.40227 9364 ft 305 kts
2026-04-23 08:00 -27.44677 153.40323 9223 ft 305 kts
2026-04-23 08:00 -27.42559 153.40420 9096 ft 304 kts
2026-04-23 08:00 -27.40444 153.40517 9010 ft 302 kts
2026-04-23 08:00 -27.38343 153.40613 9006 ft 302 kts
2026-04-23 08:01 -27.36233 153.40711 9006 ft 306 kts
2026-04-23 08:01 -27.34096 153.40807 8955 ft 310 kts
2026-04-23 08:01 -27.31905 153.40907 8757 ft 317 kts
2026-04-23 08:01 -27.29725 153.41006 8594 ft 317 kts
2026-04-23 08:02 -27.27544 153.41103 8449 ft 309 kts
2026-04-23 08:02 -27.25416 153.41200 8296 ft 303 kts
2026-04-23 08:02 -27.23329 153.41296 8139 ft 298 kts
2026-04-23 08:02 -27.21276 153.41276 7886 ft 289 kts 354°
2026-04-23 08:03 -27.19361 153.40714 7622 ft 284 kts 339°
2026-04-23 08:03 -27.17630 153.39656 7366 ft 285 kts 323°
2026-04-23 08:03 -27.16111 153.38217 7113 ft 286 kts 314°
2026-04-23 08:03 -27.14937 153.36457 6869 ft 275 kts 296°
2026-04-23 08:04 -27.14238 153.34534 6442 ft 262 kts 280°
2026-04-23 08:04 -27.13991 153.32593 5944 ft 246 kts 266°
2026-04-23 08:04 -27.14121 153.30811 5470 ft 216 kts 253°
2026-04-23 08:04 -27.14518 153.29293 5007 ft 198 kts 241°
2026-04-23 08:05 -27.15098 153.27920 4718 ft 190 kts 236°
2026-04-23 08:05 -27.15653 153.26613 4545 ft 180 kts 236°
2026-04-23 08:05 -27.16393 153.25494 4352 ft 181 kts 207°
2026-04-23 08:05 -27.17518 153.24856 4216 ft 181 kts 200°
2026-04-23 08:06 -27.18611 153.24217 4099 ft 180 kts 201°
2026-04-23 08:06 -27.19730 153.23576 3868 ft 181 kts 200°
2026-04-23 08:06 -27.20856 153.22937 3630 ft 180 kts 202°
2026-04-23 08:06 -27.21953 153.22304 3399 ft 173 kts 200°
2026-04-23 08:07 -27.23008 153.21709 3173 ft 167 kts 200°
2026-04-23 08:07 -27.24035 153.21117 2948 ft 166 kts 200°
2026-04-23 08:07 -27.25079 153.20522 2732 ft 169 kts 200°
2026-04-23 08:07 -27.26115 153.19933 2510 ft 169 kts 200°
2026-04-23 08:08 -27.27142 153.19345 2285 ft 160 kts 200°
2026-04-23 08:08 -27.28094 153.18795 2077 ft 147 kts 199°
2026-04-23 08:08 -27.28990 153.18290 1882 ft 143 kts 199°
2026-04-23 08:08 -27.29882 153.17779 1690 ft 144 kts 200°
2026-04-23 08:09 -27.30756 153.17279 1503 ft 142 kts 199°
2026-04-23 08:09 -27.31632 153.16780 1318 ft 140 kts 198°
2026-04-23 08:09 -27.32499 153.16278 1134 ft 136 kts 199°
2026-04-23 08:09 -27.33293 153.15823 955 ft 122 kts 197°
2026-04-23 08:10 -27.34044 153.15394 797 ft 121 kts 202°
2026-04-23 08:10 -27.34781 153.14923 674 ft 126 kts 199°
2026-04-23 08:10 -27.36481 153.13998 284 ft 144 kts 203°
2026-04-23 08:11 -27.37342 153.13500 85 ft 135 kts 202°
2026-04-23 08:11 -27.38119 153.13056 16 ft 113 kts 206°
2026-04-23 08:11 -27.38670 153.12743 16 ft 43 kts 206°
2026-04-23 08:11 -27.38853 153.12624 15 ft 25 kts 213°
2026-04-23 08:12 -27.38985 153.12483 13 ft 22 kts 237°
2026-04-23 08:12 -27.39076 153.12339 13 ft 24 kts 238°
2026-04-23 08:12 -27.39137 153.12189 12 ft 20 kts 286°
2026-04-23 08:12 -27.39003 153.12184 12 ft 25 kts 28°
2026-04-23 08:13 -27.38834 153.12284 12 ft 31 kts 25°
2026-04-23 08:13 -27.38639 153.12394 12 ft 33 kts 27°
2026-04-23 08:13 -27.38420 153.12520 12 ft 34 kts 27°
2026-04-23 08:13 -27.38190 153.12651 12 ft 39 kts 27°
2026-04-23 08:14 -27.37930 153.12800 12 ft 44 kts 26°
2026-04-23 08:14 -27.37645 153.12962 12 ft 41 kts 26°
2026-04-23 08:14 -27.37497 153.13029 12 ft 13 kts 340°
2026-04-23 08:14 -27.37440 153.12924 12 ft 19 kts 298°
2026-04-23 08:15 -27.37370 153.12769 12 ft 25 kts 298°
2026-04-23 08:15 -27.37315 153.12649 12 ft 10 kts 296°
2026-04-23 08:15 -27.37350 153.12608 12 ft 8 kts 206°
2026-04-23 08:15 -27.37342 153.12563 12 ft 8 kts 355°
2026-04-23 08:16 -27.37317 153.12575 12 ft 0 kts 27°